contact:dominique.lefevre@mio.osupytheas.fr, maurice.libes@osupytheas.fr, didier.mallarino@osupytheas.fr
Project:EMSO http://www.emso-fr.org/EMSO-France
Depth: 2436.0 m
Title:EMSO Ligure Ouest : Data MII capteur MICROCAT
DateTime_Computer,Latitude,Longitude,Temperature,Conductivity,Pressure,DateTime_Instrument
DateTime_Computer,Latitude,Longitude,degC,S m-1,dbar,DateTime_Instrument
2022-08-29T00:02:13Z,42.805,6.029,13.3086,4.60094,2470.614,2022-8-29T02:04:04Z
2022-08-29T00:05:16Z,42.805,6.029,13.3113,4.60092,2470.6,2022-8-29T02:07:07Z
2022-08-29T00:08:19Z,42.805,6.029,13.3066,4.60102,2470.614,2022-8-29T02:10:10Z
2022-08-29T00:11:22Z,42.805,6.029,13.3063,4.60089,2470.614,2022-8-29T02:13:13Z
2022-08-29T00:14:25Z,42.805,6.029,13.3061,4.60132,2470.577,2022-8-29T02:16:16Z
2022-08-29T00:17:29Z,42.805,6.029,13.3071,4.60105,2470.637,2022-8-29T02:19:19Z
2022-08-29T00:20:32Z,42.805,6.029,13.3084,4.60107,2470.577,2022-8-29T02:22:22Z
2022-08-29T00:23:35Z,42.805,6.029,13.3083,4.60131,2470.6,2022-8-29T02:25:25Z
2022-08-29T00:26:38Z,42.805,6.029,13.3109,4.60118,2470.614,2022-8-29T02:28:29Z
2022-08-29T00:29:41Z,42.805,6.029,13.3079,4.60122,2470.6,2022-8-29T02:31:32Z
2022-08-29T00:32:44Z,42.805,6.029,13.3071,4.60098,2470.577,2022-8-29T02:34:35Z
2022-08-29T00:35:47Z,42.805,6.029,13.3093,4.60094,2470.591,2022-8-29T02:37:38Z
2022-08-29T00:38:50Z,42.805,6.029,13.3086,4.60097,2470.591,2022-8-29T02:40:41Z
2022-08-29T00:41:54Z,42.805,6.029,13.3053,4.60084,2470.591,2022-8-29T02:43:44Z
2022-08-29T00:44:57Z,42.805,6.029,13.3072,4.60110,2470.577,2022-8-29T02:46:47Z
2022-08-29T00:48:00Z,42.805,6.029,13.3068,4.60115,2470.567,2022-8-29T02:49:50Z
2022-08-29T00:51:03Z,42.805,6.029,13.3061,4.60097,2470.577,2022-8-29T02:52:54Z
2022-08-29T00:54:06Z,42.805,6.029,13.3059,4.60105,2470.553,2022-8-29T02:55:57Z
2022-08-29T00:57:09Z,42.805,6.029,13.3074,4.60095,2470.591,2022-8-29T02:59:00Z
2022-08-29T01:00:12Z,42.805,6.029,13.3075,4.60095,2470.591,2022-8-29T03:02:03Z
2022-08-29T01:03:15Z,42.805,6.029,13.3052,4.60087,2470.567,2022-8-29T03:05:06Z
2022-08-29T01:06:18Z,42.805,6.029,13.3065,4.60082,2470.591,2022-8-29T03:08:09Z
2022-08-29T01:09:22Z,42.805,6.029,13.3067,4.60081,2470.577,2022-8-29T03:11:12Z
2022-08-29T01:12:25Z,42.805,6.029,13.3073,4.60082,2470.614,2022-8-29T03:14:15Z
2022-08-29T01:15:28Z,42.805,6.029,13.3078,4.60094,2470.581,2022-8-29T03:17:18Z
2022-08-29T01:18:31Z,42.805,6.029,13.3078,4.60097,2470.553,2022-8-29T03:20:22Z
2022-08-29T01:21:34Z,42.805,6.029,13.3067,4.60095,2470.591,2022-8-29T03:23:25Z
2022-08-29T01:24:37Z,42.805,6.029,13.3070,4.60085,2470.591,2022-8-29T03:26:28Z
2022-08-29T01:27:40Z,42.805,6.029,13.3063,4.60088,2470.567,2022-8-29T03:29:31Z
2022-08-29T01:30:44Z,42.805,6.029,13.3064,4.60088,2470.544,2022-8-29T03:32:34Z
2022-08-29T01:33:47Z,42.805,6.029,13.3063,4.60094,2470.591,2022-8-29T03:35:37Z
2022-08-29T01:36:50Z,42.805,6.029,13.3082,4.60081,2470.567,2022-8-29T03:38:40Z
2022-08-29T01:39:53Z,42.805,6.029,13.3084,4.60079,2470.544,2022-8-29T03:41:43Z
2022-08-29T01:42:56Z,42.805,6.029,13.3082,4.60082,2470.567,2022-8-29T03:44:47Z
2022-08-29T01:45:59Z,42.805,6.029,13.3071,4.60093,2470.53,2022-8-29T03:47:50Z
2022-08-29T01:49:02Z,42.805,6.029,13.3080,4.60085,2470.567,2022-8-29T03:50:53Z
2022-08-29T01:52:05Z,42.805,6.029,13.3074,4.60079,2470.544,2022-8-29T03:53:56Z
2022-08-29T01:55:08Z,42.805,6.029,13.3078,4.60087,2470.567,2022-8-29T03:56:59Z
2022-08-29T01:58:12Z,42.805,6.029,13.3084,4.60089,2470.591,2022-8-29T04:00:02Z
2022-08-29T02:01:15Z,42.805,6.029,13.3071,4.60082,2470.553,2022-8-29T04:03:05Z
2022-08-29T02:04:18Z,42.805,6.029,13.3068,4.60096,2470.544,2022-8-29T04:06:08Z
2022-08-29T02:07:21Z,42.805,6.029,13.3070,4.60080,2470.567,2022-8-29T04:09:12Z
2022-08-29T02:10:24Z,42.805,6.029,13.3067,4.60095,2470.52,2022-8-29T04:12:15Z
2022-08-29T02:13:27Z,42.805,6.029,13.3078,4.60108,2470.507,2022-8-29T04:15:18Z
2022-08-29T02:16:30Z,42.805,6.029,13.3080,4.60092,2470.567,2022-8-29T04:18:21Z
2022-08-29T02:19:33Z,42.805,6.029,13.3056,4.60099,2470.544,2022-8-29T04:21:24Z
2022-08-29T02:22:37Z,42.805,6.029,13.3070,4.60087,2470.544,2022-8-29T04:24:27Z
2022-08-29T02:25:40Z,42.805,6.029,13.3071,4.60075,2470.53,2022-8-29T04:27:30Z
2022-08-29T02:28:43Z,42.805,6.029,13.3051,4.60081,2470.544,2022-8-29T04:30:33Z
2022-08-29T02:31:46Z,42.805,6.029,13.3062,4.60089,2470.544,2022-8-29T04:33:37Z
2022-08-29T02:34:49Z,42.805,6.029,13.3058,4.60087,2470.53,2022-8-29T04:36:40Z
2022-08-29T02:37:52Z,42.805,6.029,13.3066,4.60102,2470.544,2022-8-29T04:39:43Z
2022-08-29T02:40:55Z,42.805,6.029,13.3066,4.60091,2470.567,2022-8-29T04:42:46Z
2022-08-29T02:43:58Z,42.805,6.029,13.3078,4.60099,2470.567,2022-8-29T04:45:49Z
2022-08-29T02:47:02Z,42.805,6.029,13.3067,4.60088,2470.553,2022-8-29T04:48:52Z
2022-08-29T02:50:05Z,42.805,6.029,13.3066,4.60110,2470.567,2022-8-29T04:51:55Z
2022-08-29T02:53:08Z,42.805,6.029,13.3065,4.60103,2470.52,2022-8-29T04:54:58Z
2022-08-29T02:56:11Z,42.805,6.029,13.3067,4.60081,2470.53,2022-8-29T04:58:02Z
2022-08-29T02:59:14Z,42.805,6.029,13.3063,4.60109,2470.553,2022-8-29T05:01:05Z
2022-08-29T03:02:17Z,42.805,6.029,13.3050,4.60081,2470.544,2022-8-29T05:04:08Z
2022-08-29T03:05:20Z,42.805,6.029,13.3051,4.60097,2470.53,2022-8-29T05:07:11Z
2022-08-29T03:08:23Z,42.805,6.029,13.3051,4.60097,2470.553,2022-8-29T05:10:14Z
2022-08-29T03:11:27Z,42.805,6.029,13.3059,4.60086,2470.544,2022-8-29T05:13:17Z
2022-08-29T03:14:30Z,42.805,6.029,13.3051,4.60081,2470.52,2022-8-29T05:16:20Z
2022-08-29T03:17:33Z,42.805,6.029,13.3048,4.60081,2470.52,2022-8-29T05:19:23Z
2022-08-29T03:20:36Z,42.805,6.029,13.3048,4.60084,2470.53,2022-8-29T05:22:26Z
2022-08-29T03:23:39Z,42.805,6.029,13.3065,4.60101,2470.544,2022-8-29T05:25:30Z
2022-08-29T03:26:42Z,42.805,6.029,13.3059,4.60087,2470.507,2022-8-29T05:28:33Z
2022-08-29T03:29:45Z,42.805,6.029,13.3094,4.60103,2470.507,2022-8-29T05:31:36Z
2022-08-29T03:32:48Z,42.805,6.029,13.3032,4.60080,2470.567,2022-8-29T05:34:39Z
2022-08-29T03:35:51Z,42.805,6.029,13.3104,4.60113,2470.53,2022-8-29T05:37:42Z
2022-08-29T03:38:55Z,42.805,6.029,13.3101,4.60097,2470.52,2022-8-29T05:40:45Z
2022-08-29T03:41:58Z,42.805,6.029,13.3103,4.60102,2470.544,2022-8-29T05:43:48Z
2022-08-29T03:45:01Z,42.805,6.029,13.3035,4.60087,2470.544,2022-8-29T05:46:51Z
2022-08-29T03:48:04Z,42.805,6.029,13.3065,4.60085,2470.52,2022-8-29T05:49:55Z
2022-08-29T03:51:07Z,42.805,6.029,13.3047,4.60099,2470.497,2022-8-29T05:52:58Z
2022-08-29T03:54:10Z,42.805,6.029,13.3081,4.60087,2470.544,2022-8-29T05:56:01Z
2022-08-29T03:57:13Z,42.805,6.029,13.3068,4.60099,2470.52,2022-8-29T05:59:04Z
2022-08-29T04:00:16Z,42.805,6.029,13.3025,4.60082,2470.53,2022-8-29T06:02:07Z
2022-08-29T04:03:20Z,42.805,6.029,13.3051,4.60090,2470.567,2022-8-29T06:05:10Z
2022-08-29T04:06:23Z,42.805,6.029,13.3081,4.60104,2470.544,2022-8-29T06:08:13Z
2022-08-29T04:09:26Z,42.805,6.029,13.3064,4.60089,2470.544,2022-8-29T06:11:16Z
2022-08-29T04:12:29Z,42.805,6.029,13.3043,4.60109,2470.507,2022-8-29T06:14:20Z
2022-08-29T04:15:32Z,42.805,6.029,13.3031,4.60079,2470.52,2022-8-29T06:17:23Z
2022-08-29T04:18:35Z,42.805,6.029,13.3057,4.60076,2470.53,2022-8-29T06:20:26Z
2022-08-29T04:21:38Z,42.805,6.029,13.3078,4.60092,2470.52,2022-8-29T06:23:29Z
2022-08-29T04:24:41Z,42.805,6.029,13.3012,4.60075,2470.53,2022-8-29T06:26:32Z
2022-08-29T04:27:45Z,42.805,6.029,13.3014,4.60078,2470.553,2022-8-29T06:29:35Z
2022-08-29T04:30:48Z,42.805,6.029,13.3009,4.60072,2470.591,2022-8-29T06:32:38Z
2022-08-29T04:33:51Z,42.805,6.029,13.3014,4.60070,2470.553,2022-8-29T06:35:41Z
2022-08-29T04:36:54Z,42.805,6.029,13.3008,4.60076,2470.553,2022-8-29T06:38:45Z
2022-08-29T04:39:57Z,42.805,6.029,13.3005,4.60111,2470.544,2022-8-29T06:41:48Z
2022-08-29T04:43:00Z,42.805,6.029,13.3009,4.60067,2470.577,2022-8-29T06:44:51Z
2022-08-29T04:46:03Z,42.805,6.029,13.3009,4.60079,2470.553,2022-8-29T06:47:54Z
2022-08-29T04:49:06Z,42.805,6.029,13.3010,4.60067,2470.53,2022-8-29T06:50:57Z
2022-08-29T04:52:10Z,42.805,6.029,13.3008,4.60082,2470.577,2022-8-29T06:54:00Z
2022-08-29T04:55:13Z,42.805,6.029,13.3011,4.60074,2470.591,2022-8-29T06:57:03Z
2022-08-29T04:58:16Z,42.805,6.029,13.3007,4.60075,2470.591,2022-8-29T07:00:06Z
2022-08-29T05:01:19Z,42.805,6.029,13.3006,4.60067,2470.553,2022-8-29T07:03:09Z
2022-08-29T05:04:22Z,42.805,6.029,13.3008,4.60067,2470.591,2022-8-29T07:06:13Z
2022-08-29T05:07:25Z,42.805,6.029,13.3008,4.60070,2470.577,2022-8-29T07:09:16Z
2022-08-29T05:10:28Z,42.805,6.029,13.3007,4.60063,2470.553,2022-8-29T07:12:19Z
2022-08-29T05:13:31Z,42.805,6.029,13.3006,4.60051,2470.6,2022-8-29T07:15:22Z
2022-08-29T05:16:34Z,42.805,6.029,13.3008,4.60051,2470.577,2022-8-29T07:18:25Z
2022-08-29T05:19:38Z,42.805,6.029,13.3010,4.60052,2470.637,2022-8-29T07:21:28Z
2022-08-29T05:22:41Z,42.805,6.029,13.3009,4.60056,2470.6,2022-8-29T07:24:31Z
2022-08-29T05:25:44Z,42.805,6.029,13.3008,4.60054,2470.591,2022-8-29T07:27:34Z
2022-08-29T05:28:47Z,42.805,6.029,13.3011,4.60051,2470.577,2022-8-29T07:30:38Z
2022-08-29T05:31:50Z,42.805,6.029,13.3007,4.60056,2470.6,2022-8-29T07:33:41Z
2022-08-29T05:34:53Z,42.805,6.029,13.3004,4.60052,2470.577,2022-8-29T07:36:44Z
2022-08-29T05:37:56Z,42.805,6.029,13.3006,4.60054,2470.577,2022-8-29T07:39:47Z
2022-08-29T05:40:59Z,42.805,6.029,13.3003,4.60057,2470.577,2022-8-29T07:42:50Z
2022-08-29T05:44:03Z,42.805,6.029,13.3008,4.60054,2470.577,2022-8-29T07:45:53Z
2022-08-29T05:47:06Z,42.805,6.029,13.3006,4.60062,2470.637,2022-8-29T07:48:56Z
2022-08-29T05:50:09Z,42.805,6.029,13.3009,4.60062,2470.6,2022-8-29T07:51:59Z
2022-08-29T05:53:12Z,42.805,6.029,13.3006,4.60053,2470.6,2022-8-29T07:55:03Z
2022-08-29T05:56:15Z,42.805,6.029,13.3006,4.60054,2470.624,2022-8-29T07:58:06Z
2022-08-29T05:59:18Z,42.805,6.029,13.3007,4.60059,2470.624,2022-8-29T08:01:09Z
2022-08-29T06:02:21Z,42.805,6.029,13.3006,4.60059,2470.624,2022-8-29T08:04:12Z
2022-08-29T06:05:24Z,42.805,6.029,13.3006,4.60052,2470.6,2022-8-29T08:07:15Z
2022-08-29T06:08:27Z,42.805,6.029,13.3006,4.60056,2470.614,2022-8-29T08:10:18Z
2022-08-29T06:11:31Z,42.805,6.029,13.3009,4.60051,2470.624,2022-8-29T08:13:21Z
2022-08-29T06:14:34Z,42.805,6.029,13.3009,4.60054,2470.624,2022-8-29T08:16:24Z
2022-08-29T06:17:37Z,42.805,6.029,13.3006,4.60056,2470.646,2022-8-29T08:19:28Z
2022-08-29T06:20:40Z,42.805,6.029,13.3004,4.60055,2470.67,2022-8-29T08:22:31Z
2022-08-29T06:23:43Z,42.805,6.029,13.3006,4.60056,2470.624,2022-8-29T08:25:34Z
2022-08-29T06:26:46Z,42.805,6.029,13.3008,4.60052,2470.633,2022-8-29T08:28:37Z
2022-08-29T06:29:49Z,42.805,6.029,13.3008,4.60050,2470.661,2022-8-29T08:31:40Z
2022-08-29T06:32:52Z,42.805,6.029,13.3009,4.60052,2470.661,2022-8-29T08:34:43Z
2022-08-29T06:35:56Z,42.805,6.029,13.3008,4.60051,2470.614,2022-8-29T08:37:46Z
2022-08-29T06:38:59Z,42.805,6.029,13.3009,4.60053,2470.646,2022-8-29T08:40:49Z
2022-08-29T06:42:02Z,42.805,6.029,13.3006,4.60052,2470.646,2022-8-29T08:43:53Z
2022-08-29T06:45:05Z,42.805,6.029,13.3010,4.60054,2470.624,2022-8-29T08:46:56Z
2022-08-29T06:48:08Z,42.805,6.029,13.3008,4.60051,2470.67,2022-8-29T08:49:59Z
2022-08-29T06:51:11Z,42.805,6.029,13.3006,4.60050,2470.646,2022-8-29T08:53:02Z
2022-08-29T06:54:14Z,42.805,6.029,13.3010,4.60050,2470.661,2022-8-29T08:56:05Z
2022-08-29T06:57:17Z,42.805,6.029,13.3007,4.60052,2470.637,2022-8-29T08:59:08Z
2022-08-29T07:00:21Z,42.805,6.029,13.3009,4.60051,2470.684,2022-8-29T09:02:11Z
2022-08-29T07:03:24Z,42.805,6.029,13.3011,4.60049,2470.67,2022-8-29T09:05:14Z
2022-08-29T07:06:27Z,42.805,6.029,13.3008,4.60049,2470.646,2022-8-29T09:08:17Z
2022-08-29T07:09:30Z,42.805,6.029,13.3006,4.60052,2470.684,2022-8-29T09:11:21Z
2022-08-29T07:12:33Z,42.805,6.029,13.3006,4.60051,2470.67,2022-8-29T09:14:24Z
2022-08-29T07:15:36Z,42.805,6.029,13.3006,4.60052,2470.646,2022-8-29T09:17:27Z
2022-08-29T07:18:39Z,42.805,6.029,13.3004,4.60052,2470.637,2022-8-29T09:20:30Z
2022-08-29T07:21:42Z,42.805,6.029,13.3004,4.60050,2470.693,2022-8-29T09:23:33Z
2022-08-29T07:24:46Z,42.805,6.029,13.3008,4.60050,2470.67,2022-8-29T09:26:36Z
2022-08-29T07:27:49Z,42.805,6.029,13.3008,4.60053,2470.693,2022-8-29T09:29:39Z
2022-08-29T07:30:52Z,42.805,6.029,13.3008,4.60052,2470.624,2022-8-29T09:32:42Z
2022-08-29T07:33:55Z,42.805,6.029,13.3009,4.60054,2470.67,2022-8-29T09:35:46Z
2022-08-29T07:36:58Z,42.805,6.029,13.3005,4.60052,2470.67,2022-8-29T09:38:49Z
2022-08-29T07:40:01Z,42.805,6.029,13.3008,4.60049,2470.684,2022-8-29T09:41:52Z
2022-08-29T07:43:04Z,42.805,6.029,13.3010,4.60049,2470.693,2022-8-29T09:44:55Z
2022-08-29T07:46:07Z,42.805,6.029,13.3008,4.60050,2470.67,2022-8-29T09:47:58Z
2022-08-29T07:49:11Z,42.805,6.029,13.3011,4.60049,2470.67,2022-8-29T09:51:01Z
2022-08-29T07:52:14Z,42.805,6.029,13.3010,4.60049,2470.684,2022-8-29T09:54:04Z
2022-08-29T07:55:17Z,42.805,6.029,13.3009,4.60050,2470.707,2022-8-29T09:57:07Z
2022-08-29T07:58:20Z,42.805,6.029,13.3005,4.60049,2470.684,2022-8-29T10:00:11Z
2022-08-29T08:01:23Z,42.805,6.029,13.3006,4.60052,2470.73,2022-8-29T10:03:14Z
2022-08-29T08:04:26Z,42.805,6.029,13.3006,4.60049,2470.67,2022-8-29T10:06:17Z
2022-08-29T08:07:29Z,42.805,6.029,13.3004,4.60053,2470.684,2022-8-29T10:09:20Z
2022-08-29T08:10:32Z,42.805,6.029,13.3003,4.60050,2470.67,2022-8-29T10:12:23Z
2022-08-29T08:13:35Z,42.805,6.029,13.3006,4.60050,2470.707,2022-8-29T10:15:26Z
2022-08-29T08:16:39Z,42.805,6.029,13.3008,4.60051,2470.67,2022-8-29T10:18:29Z
2022-08-29T08:19:42Z,42.805,6.029,13.3010,4.60056,2470.67,2022-8-29T10:21:32Z
2022-08-29T08:22:45Z,42.805,6.029,13.3005,4.60051,2470.67,2022-8-29T10:24:36Z
2022-08-29T08:25:48Z,42.805,6.029,13.3011,4.60054,2470.693,2022-8-29T10:27:39Z
2022-08-29T08:28:51Z,42.805,6.029,13.3011,4.60052,2470.684,2022-8-29T10:30:42Z
2022-08-29T08:31:54Z,42.805,6.029,13.3010,4.60055,2470.67,2022-8-29T10:33:45Z
2022-08-29T08:34:57Z,42.805,6.029,13.3011,4.60056,2470.693,2022-8-29T10:36:48Z
2022-08-29T08:38:01Z,42.805,6.029,13.3009,4.60056,2470.656,2022-8-29T10:39:51Z
2022-08-29T08:41:04Z,42.805,6.029,13.3009,4.60056,2470.693,2022-8-29T10:42:54Z
2022-08-29T08:44:07Z,42.805,6.029,13.3009,4.60051,2470.67,2022-8-29T10:45:57Z
2022-08-29T08:47:10Z,42.805,6.029,13.3006,4.60052,2470.717,2022-8-29T10:49:01Z
2022-08-29T08:50:13Z,42.805,6.029,13.3005,4.60056,2470.67,2022-8-29T10:52:04Z
2022-08-29T08:53:16Z,42.805,6.029,13.3004,4.60056,2470.67,2022-8-29T10:55:07Z
2022-08-29T08:56:19Z,42.805,6.029,13.3003,4.60060,2470.646,2022-8-29T10:58:10Z
2022-08-29T08:59:22Z,42.805,6.029,13.3006,4.60054,2470.637,2022-8-29T11:01:13Z
2022-08-29T09:02:26Z,42.805,6.029,13.3005,4.60052,2470.693,2022-8-29T11:04:16Z
2022-08-29T09:05:29Z,42.805,6.029,13.3008,4.60053,2470.717,2022-8-29T11:07:19Z
2022-08-29T09:08:32Z,42.805,6.029,13.3006,4.60057,2470.693,2022-8-29T11:10:22Z
2022-08-29T09:11:35Z,42.805,6.029,13.3009,4.60055,2470.693,2022-8-29T11:13:26Z
2022-08-29T09:14:38Z,42.805,6.029,13.3006,4.60059,2470.693,2022-8-29T11:16:29Z
2022-08-29T09:17:41Z,42.805,6.029,13.3013,4.60059,2470.661,2022-8-29T11:19:32Z
2022-08-29T09:20:44Z,42.805,6.029,13.3011,4.60058,2470.67,2022-8-29T11:22:35Z
2022-08-29T09:23:47Z,42.805,6.029,13.3008,4.60057,2470.67,2022-8-29T11:25:38Z
2022-08-29T09:26:51Z,42.805,6.029,13.3006,4.60059,2470.67,2022-8-29T11:28:41Z
2022-08-29T09:29:54Z,42.805,6.029,13.3009,4.60056,2470.693,2022-8-29T11:31:44Z
2022-08-29T09:32:57Z,42.805,6.029,13.3009,4.60059,2470.67,2022-8-29T11:34:48Z
2022-08-29T09:36:00Z,42.805,6.029,13.3009,4.60054,2470.624,2022-8-29T11:37:51Z
2022-08-29T09:39:03Z,42.805,6.029,13.3009,4.60057,2470.646,2022-8-29T11:40:54Z
2022-08-29T09:42:06Z,42.805,6.029,13.3009,4.60060,2470.661,2022-8-29T11:43:57Z
2022-08-29T09:45:09Z,42.805,6.029,13.3010,4.60061,2470.67,2022-8-29T11:47:00Z
2022-08-29T09:48:12Z,42.805,6.029,13.3009,4.60057,2470.661,2022-8-29T11:50:03Z
2022-08-29T09:51:16Z,42.805,6.029,13.3009,4.60060,2470.67,2022-8-29T11:53:06Z
2022-08-29T09:54:19Z,42.805,6.029,13.3006,4.60055,2470.633,2022-8-29T11:56:09Z
2022-08-29T09:57:22Z,42.805,6.029,13.3006,4.60055,2470.67,2022-8-29T11:59:13Z
2022-08-29T10:00:25Z,42.805,6.029,13.3004,4.60053,2470.646,2022-8-29T12:02:16Z
2022-08-29T10:03:28Z,42.805,6.029,13.3007,4.60055,2470.646,2022-8-29T12:05:19Z
2022-08-29T10:06:31Z,42.805,6.029,13.3005,4.60057,2470.67,2022-8-29T12:08:22Z
2022-08-29T10:09:34Z,42.805,6.029,13.3011,4.60069,2470.661,2022-8-29T12:11:25Z
2022-08-29T10:12:37Z,42.805,6.029,13.3009,4.60054,2470.646,2022-8-29T12:14:28Z
2022-08-29T10:15:41Z,42.805,6.029,13.3009,4.60052,2470.624,2022-8-29T12:17:31Z
2022-08-29T10:18:44Z,42.805,6.029,13.3009,4.60049,2470.624,2022-8-29T12:20:34Z
2022-08-29T10:21:47Z,42.805,6.029,13.3009,4.60050,2470.646,2022-8-29T12:23:38Z
2022-08-29T10:24:50Z,42.805,6.029,13.3006,4.60052,2470.646,2022-8-29T12:26:41Z
2022-08-29T10:27:53Z,42.805,6.029,13.3002,4.60055,2470.624,2022-8-29T12:29:44Z
2022-08-29T10:30:56Z,42.805,6.029,13.3009,4.60052,2470.624,2022-8-29T12:32:47Z
2022-08-29T10:33:59Z,42.805,6.029,13.3006,4.60057,2470.646,2022-8-29T12:35:50Z
2022-08-29T10:37:03Z,42.805,6.029,13.3009,4.60056,2470.661,2022-8-29T12:38:53Z
2022-08-29T10:40:06Z,42.805,6.029,13.3006,4.60062,2470.614,2022-8-29T12:41:56Z
2022-08-29T10:43:09Z,42.805,6.029,13.3007,4.60064,2470.624,2022-8-29T12:44:59Z
2022-08-29T10:46:12Z,42.805,6.029,13.3007,4.60058,2470.6,2022-8-29T12:48:03Z
2022-08-29T10:49:15Z,42.805,6.029,13.3009,4.60050,2470.6,2022-8-29T12:51:06Z
2022-08-29T10:52:18Z,42.805,6.029,13.3006,4.60064,2470.637,2022-8-29T12:54:09Z
2022-08-29T10:55:21Z,42.805,6.029,13.3004,4.60057,2470.577,2022-8-29T12:57:12Z
2022-08-29T10:58:24Z,42.805,6.029,13.3006,4.60059,2470.591,2022-8-29T13:00:15Z
2022-08-29T11:01:28Z,42.805,6.029,13.3004,4.60055,2470.614,2022-8-29T13:03:18Z
2022-08-29T11:04:31Z,42.805,6.029,13.3006,4.60062,2470.624,2022-8-29T13:06:21Z
2022-08-29T11:07:34Z,42.805,6.029,13.3006,4.60057,2470.6,2022-8-29T13:09:24Z
2022-08-29T11:10:37Z,42.805,6.029,13.3005,4.60052,2470.624,2022-8-29T13:12:28Z
2022-08-29T11:13:40Z,42.805,6.029,13.3008,4.60056,2470.553,2022-8-29T13:15:31Z
2022-08-29T11:16:43Z,42.805,6.029,13.3008,4.60056,2470.6,2022-8-29T13:18:34Z
2022-08-29T11:19:46Z,42.805,6.029,13.3005,4.60059,2470.577,2022-8-29T13:21:37Z
2022-08-29T11:22:49Z,42.805,6.029,13.3007,4.60057,2470.6,2022-8-29T13:24:40Z
2022-08-29T11:25:53Z,42.805,6.029,13.3006,4.60062,2470.624,2022-8-29T13:27:43Z
2022-08-29T11:28:56Z,42.805,6.029,13.3008,4.60057,2470.553,2022-8-29T13:30:46Z
2022-08-29T11:38:09Z,42.805,6.029,13.3009,4.60059,2470.553,2022-8-29T13:39:59Z
2022-08-29T11:41:12Z,42.805,6.029,13.3006,4.60060,2470.591,2022-8-29T13:43:02Z
2022-08-29T11:44:15Z,42.805,6.029,13.3008,4.60059,2470.53,2022-8-29T13:46:06Z
2022-08-29T11:47:18Z,42.805,6.029,13.3009,4.60062,2470.577,2022-8-29T13:49:09Z
2022-08-29T11:50:21Z,42.805,6.029,13.3006,4.60063,2470.567,2022-8-29T13:52:12Z
2022-08-29T11:53:24Z,42.805,6.029,13.3008,4.60064,2470.577,2022-8-29T13:55:15Z
2022-08-29T11:56:27Z,42.805,6.029,13.3006,4.60062,2470.6,2022-8-29T13:58:18Z
2022-08-29T11:59:31Z,42.805,6.029,13.3008,4.60067,2470.539,2022-8-29T14:01:21Z
2022-08-29T12:02:34Z,42.805,6.029,13.3008,4.60058,2470.553,2022-8-29T14:04:24Z
